Location: Gombori
(14.9797°N, 2.9419°W)
Time: 10:28:57
(UTC+00:00)

Cosmos 2082 Rocket - Pass Details

Date: 29 July 2021
Orbit: 831 x 855 km, 71.0° (Epoch: 22 September)

Event Time Altitude Azimuth Distance (km) Brightness Sun altitude
Rises 18:55:50 0° 180° (S) 3,361 5.1 -3.9°
Reaches altitude 10° 18:58:23 10° 173° (S) 2,429 4.3 -4.4°
Maximum altitude 19:03:35 41° 104° (ESE) 1,190 2.6 -5.6°
Drops below altitude 10° 19:08:47 10° 35° (NE) 2,439 4.5 -6.8°
Sets 19:11:20 0° 28° (NNE) 3,377 5.3 -7.4°
